www.pogodaiklimat.ru

Погода и климат >> Архив погоды >> Австралия >> Geraldton Airport


ПОГОДА в Geraldton Airport

  • Прогноз погоды в Geraldton Airport
  • Монитор погоды в Geraldton Airport
  • Климат города

АРХИВ ПОГОДЫ в Geraldton Airport

Время (UTC), дата Ветер
(напр.,м/с)
 
Видим.   Явления Облачность Т
(С)
Тd
(С)
f
(%)
Тe
(С)
Тes
(С)
Комфортность P
(гПа)
Po
(гПа)
Тmin
(С)
Tmax
(С)
R
(мм)
R24
(мм)
S
(см)
22 12.07 Ю 3 н/о в посл. час дождь {туман} 10/10 200 м
[]
+15.2 +13.9 92 +15 +15 1016.8 1013.2
00 13.07 Ю 2 н/о н/о +15.6 +12.9 84 +16 +16 1018.0 1014.4
01 13.07 ЮВ 2 н/о {туман} 10/10 1000 м
[]
+17.0 +13.9 82 +18 +18 1018.8 1015.2 +9.7
03 13.07 Ю 5 н/о н/о +18.5 +12.0 66 +19 +19 1018.9 1015.3
04 13.07 Ю 5 н/о {туман} 4/0 2000 м
[]
+19.4 +11.2 59 +20 +25 1018.5 1014.9
06 13.07 ЮЗ 4 н/о н/о +18.8 +9.8 56 +19 +19 1017.7 1014.1
07 13.07 Ю 3 н/о {туман} 10/0 2000 м
[]
+18.7 +9.5 55 +20 +22 1017.4 1013.8
09 13.07 Ю 2 н/о н/о +17.3 +11.3 68 +18 +18 1017.7 1014.1
10 13.07 Ю 2 н/о 10/10 1000 м
[]
+16.4 +10.0 66 +17 +17 1017.9 1014.3
12 13.07 ЮВ 3 н/о н/о +13.3 +11.2 87 +12 +12 1018.9 1015.3
13 13.07 ЮВ 2 н/о н/о +12.0 +10.1 88 +11 +11 1019.3 1015.7 +20.0
15 13.07 З 2 н/о н/о +13.6 +12.3 92 +13 +13 1019.7 1016.1
16 13.07 В 4 н/о в посл. час дождь {туман} 10/0 2000 м
[]
+13.4 +11.8 90 +12 +12 1019.1 1015.5
18 13.07 СВ 4 н/о н/о +10.8 +9.9 94 +8 +8 1018.5 1014.9
19 13.07 СВ 4 н/о {туман} 10/10 1000 м
[]
+11.9 +10.8 93 +10 +10 1018.7 1015.1
21 13.07 С 4 н/о н/о +12.0 +10.7 92 +10 +10 1018.0 1014.4
22 13.07 С 3 н/о {туман} 10/10 1500 м
[]
+12.2 +10.8 91 +11 +11 1018.0 1014.4
00 14.07 С 4 н/о н/о +12.1 +10.5 90 +10 +10 1018.4 1014.8
01 14.07 СВ 3 н/о {туман} 10/10 1500 м
[]
+14.5 +11.7 83 +14 +14 1018.4 1014.8 +10.2
03 14.07 СЗ 4 н/о н/о +18.2 +12.6 70 +18 +18 1018.2 1014.6
04 14.07 СЗ 6 н/о 9/9 600 м
[]
+17.9 +14.0 78 +17 +18 1017.7 1014.1
06 14.07 СЗ 5 н/о н/о +16.7 +14.3 86 +16 +16 1016.4 1012.8
07 14.07 З 7 н/о 6/6 600 м
[]
+18.2 +11.5 65 +18 +18 1015.8 1012.2
09 14.07 З 6 н/о н/о +17.1 +12.4 74 +16 +16 1015.0 1011.4
10 14.07 З 6 н/о {туман} 10/10 1000 м
[]
+17.0 +10.4 65 +16 +16 1014.7 1011.1
12 14.07 З 9 н/о н/о +16.2 +12.6 79 +14 +14 1015.3 1011.7
13 14.07 З 8 н/о в посл. час дождь {туман} 10/10 300 м
[]
+15.4 +13.8 90 +13 +13 1015.9 1012.3 +19.4
15 14.07 ЮЗ 9 н/о н/о +15.8 +10.3 70 +14 +14 1016.8 1013.2
16 14.07 ЮЗ 10 н/о {туман} 10/10 1000 м
[]
+15.1 +7.9 62 +13 +13 1017.2 1013.6
18 14.07 ЮЗ 6 н/о н/о +13.6 +5.3 57 +12 +12 1017.4 1013.8
19 14.07 ЮЗ 6 н/о {туман} 10/10 1000 м
[]
+14.2 +6.3 59 +12 +12 1017.3 1013.7
21 14.07 ЮЗ 8 н/о н/о +13.6 +9.3 75 +11 +11 1017.6 1014.0
22 14.07 Ю 6 н/о 6/6 300 м
[]
+12.9 +10.1 83 +10 +10 1018.4 1014.8
00 15.07 Ю 2 н/о н/о +13.2 +10.2 82 +13 +13 1019.5 1015.9
01 15.07 ЮВ 4 н/о 10/10 600 м
[]
+13.9 +10.9 82 +12 +12 1020.4 1016.8 +12.1
03 15.07 З 2 н/о н/о +15.3 +12.1 81 +15 +15 1021.0 1017.4
04 15.07 ЮВ 5 н/о {туман} 9/9 600 м
[]
+16.1 +11.7 75 +15 +16 1020.1 1016.5
06 15.07 ЮЗ 3 н/о н/о +17.0 +10.6 66 +17 +17 1019.1 1015.5
07 15.07 ЮЗ 6 н/о {туман} 10/10 1000 м
[]
+16.2 +11.4 73 +15 +15 1019.4 1015.8
09 15.07 В 2 н/о н/о +15.0 +12.7 86 +15 +15 1019.6 1016.0
10 15.07 СВ 3 н/о 10/10 1000 м
[]
+14.6 +13.0 90 +14 +14 1019.6 1016.0
12 15.07 С 4 н/о н/о +14.4 +12.6 89 +13 +13 1020.0 1016.4
13 15.07 С 3 н/о 9/9 1500 м
[]
+14.2 +12.4 89 +13 +13 1020.2 1016.6 +18.2
15 15.07 С 1 н/о н/о +14.2 +12.6 90 +14 +14 1019.9 1016.3
16 15.07 С 2 н/о 10/10 1000 м
[]
+14.2 +12.1 87 +14 +14 1019.5 1015.9
18 15.07 С 3 н/о н/о +14.3 +12.2 87 +13 +13 1018.5 1014.9
19 15.07 З 1 н/о 10/10 1000 м
[]
+14.5 +12.4 87 +16 +16 1018.0 1014.4
21 15.07 С 3 н/о н/о +14.4 +12.1 86 +14 +14 1016.9 1013.3
22 15.07 ЮЗ 5 н/о 10/10 600 м
[]
+15.7 +12.5 81 +15 +15 1017.2 1013.6
00 16.07 З 5 н/о н/о +16.4 +12.8 79 +15 +15 1017.6 1014.0
01 16.07 ЮЗ 5 н/о 10/10 1000 м
[]
+17.3 +14.2 82 +17 +17 1017.9 1014.3 +13.3
03 16.07 З 6 н/о н/о +17.0 +15.3 90 +16 +16 1018.7 1015.1
04 16.07 З 7 н/о в посл. час дождь {туман} 10/10 300 м
[]
+18.2 +14.7 80 +18 +18 1018.2 1014.6
06 16.07 ЮЗ 8 н/о н/о +18.4 +13.9 75 +18 +18 1016.8 1013.2
07 16.07 ЮЗ 7 н/о {туман} 8/8 300 м
[]
+18.1 +14.8 81 +17 +18 1017.1 1013.5
09 16.07 ЮЗ 6 н/о н/о +17.1 +12.0 72 +16 +16 1017.3 1013.7
10 16.07 ЮЗ 6 н/о {туман} 10/10 600 м
[]
+16.6 +10.5 67 +16 +16 1017.6 1014.0
12 16.07 ЮЗ 3 н/о н/о +15.4 +10.8 74 +15 +15 1018.4 1014.8
13 16.07 ЮЗ 4 н/о {туман} 8/8 600 м
[]
+15.6 +11.2 75 +15 +15 1018.5 1014.9 +19.6
15 16.07 ЮЗ 4 н/о н/о +15.9 +11.5 75 +15 +15 1018.3 1014.7
16 16.07 ЮЗ 5 н/о 10/10 1000 м
[]
+15.4 +12.3 82 +14 +14 1018.5 1014.9
18 16.07 СВ 3 н/о н/о +13.2 +12.3 94 +12 +12 1018.1 1014.5
19 16.07 С 4 н/о {туман} 10/10 600 м
[]
+13.1 +12.3 95 +11 +11 1018.0 1014.4
21 16.07 С 4 н/о н/о +13.3 +12.5 95 +12 +12 1018.1 1014.5
22 16.07 С 3 н/о в посл. час дождь {туман} 10/10 600 м
[]
+13.5 +12.7 95 +12 +12 1018.2 1014.6
00 17.07 СВ 3 н/о н/о +13.7 +12.9 95 +12 +12 1019.2 1015.6
01 17.07 СВ 3 н/о {туман} 9/9 1000 м
[]
+14.6 +13.3 92 +14 +14 1019.6 1016.0 +11.7
03 17.07 СВ 3 н/о н/о +18.2 +12.2 68 +19 +19 1019.8 1016.2
04 17.07 В 3 н/о 8/8 1000 м
[]
+18.8 +11.1 61 +20 +22 1019.2 1015.6
06 17.07 В 1 н/о н/о +18.9 +11.2 61 +21 +21 комфорт 1018.2 1014.6
07 17.07 штиль 0 н/о 10/10 1500 м
[]
+18.8 +9.8 56 +19 +19 1018.0 1014.4
09 17.07 ЮЗ 3 н/о н/о +17.3 +12.6 74 +17 +17 1018.2 1014.6
10 17.07 Ю 3 н/о 10/10 1000 м
[]
+15.9 +12.6 81 +16 +16 1018.4 1014.8
12 17.07 В 2 н/о н/о +13.8 +11.7 87 +13 +13 1018.8 1015.2
13 17.07 С 4 н/о н/о +11.7 +9.8 88 +10 +10 1019.0 1015.4 +19.8
15 17.07 СВ 4 н/о н/о +12.2 +10.3 88 +10 +10 1018.6 1015.0
16 17.07 С 5 н/о 3/3 1500 м
[]
+11.7 +9.6 87 +9 +9 1018.2 1014.6
18 17.07 С 5 н/о н/о +11.4 +9.3 87 +9 +9 1018.1 1014.5
19 17.07 С 5 н/о 10/10 1000 м
[]
+11.9 +9.3 84 +10 +10 1018.1 1014.5
21 17.07 С 5 н/о н/о +11.7 +9.3 85 +9 +9 1018.3 1014.7
22 17.07 СВ 4 н/о 10/10 1000 м
[]
+11.9 +9.3 84 +10 +10 1018.5 1014.9
00 18.07 СВ 5 н/о н/о +12.6 +9.2 80 +10 +10 1019.2 1015.6
01 18.07 СВ 4 н/о 10/10 1500 м
[]
+13.7 +10.3 80 +12 +12 1019.6 1016.0 +11.3
03 18.07 СВ 4 н/о н/о +16.0 +12.0 77 +15 +15 1020.3 1016.7
04 18.07 СВ 4 н/о 10/10 1500 м
[]
+17.2 +12.3 73 +17 +17 1019.9 1016.3
06 18.07 ЮЗ 1 н/о н/о +18.5 +9.3 55 +20 +20 1019.2 1015.6
07 18.07 В 3 н/о 10/10 1000 м
[]
+18.2 +10.6 61 +19 +19 1019.4 1015.8
09 18.07 ЮВ 2 н/о н/о +16.6 +12.2 75 +17 +17 1019.4 1015.8
10 18.07 В 2 н/о 1/1 1500 м
[]
+13.9 +10.9 82 +14 +14 1019.7 1016.1
12 18.07 СВ 3 н/о н/о +12.9 +11.1 89 +12 +12 1021.0 1017.4
13 18.07 СВ 3 н/о 10/10 1000 м
[]
+13.2 +11.1 87 +12 +12 1021.3 1017.7 +19.3
15 18.07 СВ 4 н/о н/о +11.1 +9.5 90 +9 +9 1021.8 1018.2
16 18.07 С 4 н/о 1/1 1500 м
[]
+11.2 +9.6 90 +9 +9 1021.7 1018.1
18 18.07 СВ 4 н/о н/о +11.8 +10.2 90 +10 +10 1021.6 1018.0
19 18.07 СВ 4 н/о 1/1 1500 м
[]
+10.4 +9.0 91 +8 +8 1021.5 1017.9
21 18.07 СВ 5 н/о н/о +9.5 +8.4 93 +6 +6 1021.2 1017.6
22 18.07 СВ 5 н/о н/о +9.2 +8.0 92 +6 +6 1021.6 1018.0
00 19.07 СВ 5 н/о н/о +9.8 +8.1 89 +6 +6 1022.7 1019.1
01 19.07 СВ 5 н/о н/о +12.2 +9.9 86 +10 +10 1023.1 1019.5 +8.6
03 19.07 СВ 5 н/о н/о +17.7 +11.5 67 +17 +17 1022.8 1019.2
04 19.07 В 5 н/о н/о +18.4 +11.7 65 +18 +18 1022.0 1018.4
06 19.07 В 4 н/о н/о +19.3 +9.8 54 +20 +20 1020.6 1017.0
07 19.07 СВ 2 н/о 3/3 1000 м
[]
+19.8 +10.0 53 +22 +25 комфорт 1020.6 1017.0
09 19.07 В 3 н/о н/о +16.9 +10.7 67 +17 +17 1020.1 1016.5
10 19.07 ЮВ 2 н/о н/о +14.6 +9.8 73 +14 +14 1020.1 1016.5
12 19.07 С 2 н/о н/о +10.4 +8.2 86 +9 +9 1020.8 1017.2
13 19.07 СВ 4 н/о н/о +9.6 +8.2 91 +7 +7 1020.7 1017.1 +20.4
15 19.07 СВ 4 н/о н/о +8.1 +7.0 93 +5 +5 1020.3 1016.7
16 19.07 СВ 2 н/о н/о +7.6 +6.5 93 +5 +5 1019.7 1016.1
18 19.07 СВ 5 н/о н/о +7.0 +5.9 93 +3 +3 1018.7 1015.1
19 19.07 СВ 5 н/о н/о +7.1 +6.0 93 +3 +3 1018.0 1014.4
21 19.07 СВ 4 н/о н/о +6.3 +5.3 93 +3 +3 1017.1 1013.5
22 19.07 СВ 7 н/о н/о +6.9 +5.2 89 +2 +2 1017.3 1013.7

 

Местоположение метеостанции Geraldton Airport (Западная Австралия, Австралия): широта -28.80 долгота 114.70 высота над уровнем моря 35 м.

В архиве по умолчанию представлена погода в Geraldton Airport за последнюю неделю. Архивные данные за месяц целиком и за предыдущие месяцы, начиная с января 2011 года, Вы можете получить, выбрав интересующий диапазон дат из раскрывающегося списка и нажав кнопку "Ввод!".


*Определитесь, кто Вы:
робот инопланетянин человек

Внимание! Время в таблицах - всемирное. Для получения местного времени необходимо прибавить поправку, которая в Geraldton Airport равна 8 ч.

Смотрите также архив погоды в соседних городах и на ближайших метеорологических станциях:

Погода в Morawa Airport (Западная Австралия, Австралия) (136 км)
Погода в Rottnest Island Lighthouse (Западная Австралия, Австралия) (188 км)
Погода в Dalwallinu (Западная Австралия, Австралия) (252 км)
Погода в Mount Magnet Aero (Западная Австралия, Австралия) (316 км)
Погода в Gingin Aero (Западная Австралия, Австралия) (318 км)
Погода в Shark Bay Airport (Западная Австралия, Австралия) (341 км)
Погода в Bullsbrook Pearce Amo (Западная Австралия, Австралия) (343 км)
Погода в Wanneroo (Западная Австралия, Австралия) (344 км)
Погода в Mount Lawley Perth Metro (Западная Австралия, Австралия) (365 км)
Погода в Swanbourne (Западная Австралия, Австралия) (365 км)

Пояснения к столбцам:

Ветер - указаны скорость ветра в м/с - средняя за 10 мин, порывы в срок и между сроками (в фигурных скобках) и направление, откуда дует ветер: С - северный, СВ - северо-восточный, В - восточный, ЮВ - юго-восточный, Ю - южный, ЮЗ - юго-западный, З - западный, СЗ - северо-западный.
Видимость - горизонтальная дальность видимости в метрах или километрах. При видимости от 1 до 10 км при отсутствии осадков обычно наблюдается дымка, при ухудшении видимости до 1 км и менее - туман. В сухую погоду видимость может ухудшаться дымом, пылью или мглою.
Явления - указаны атмосферные явления, наблюдавшиеся в срок или в последний час перед сроком; фигурными скобками обозначены явления, наблюдавшиеся между сроками (за 1-3 часа до срока); квадратными скобками обозначены град или гололедные отложения с указанием их диаметра в мм.
Облачность - указаны через наклонную черту общая и нижняя облачность в баллах и высота нижней границы облаков в метрах; квадратными скобками обозначены формы облаков: Ci - перистые, Cs - перисто-слоистые, Cc - перисто-кучевые, Ac - высококучевые, As - высокослоистые, Sc - слоисто-кучевые, Ns - слоисто-дождевые, Cu - кучевые, Cb - кучево-дождевые. Подробнее классификацию облаков см. в Атласе облаков (PDF).
T - Температура воздуха - температура, измеренная на высоте 2 м над землей.
Td - Температура точки росы - температура, при понижении до которой содержащийся в воздухе водяной пар достигнет насыщения.
f - Относительная влажность воздуха - влажноcть воздуха, измеренная на высоте 2 м над землей.
Te - Эффективная температура - температура, которую ощущает одетый по сезону человек в тени. Характеристика душности погоды. При расчете учитывается влияние влажности воздуха и скорости ветра на теплоощущения человека.
Tes - Эффективная температура на солнце - температура, которую ощущает человек, с поправкой на солнечный нагрев. Характеристика знойности погоды. Зависит от высоты солнца над горизонтом, облачности и скорости ветра. Ночью, в пасмурную погоду, а также при ветре 12 м/с и более поправка равна нулю.
P - Атмосферное давление - приведенное к уровню моря атмосферное давление.
Po - Атмосферное давление - измеренное на уровне метеостанции атмосферное давление.
Tmin - Минимальная температура - минимум температуры воздуха на высоте 2 м над землей.
Tmax - Максимальная температура - максимум температуры воздуха на высоте 2 м над землей.
R - Количество осадков - Количество выпавших осадков за период времени, мм. При наведении курсора мыши на число - период времени, за который выпало указанное количество осадков.
R24 - Количество осадков - Количество выпавших осадков за 24 часа, мм.
S - Снежный покров - Высота снежного покрова, см. При наведении курсора мыши на число - состояние снежного покрова и степень покрытия местности в баллах.